Simultaneous Nadir Overpasses (SNOs) Predictions

Prediction of SNOs between GOES-14 and AQUA Satellite Orbit:

Table of predicted SNOs for the next 14.0 days since TLE Epoch: 5/17/2019
Index Date Time (GOES-14) GOES-14 Lat,Lon AQUA Lat,Lon Distance(km) Time Diff (sec)
1 05/18/2019 08:17:35 0.09,-104.40 -0.80,-100.25 472.09 80
2 05/18/2019 20:39:00 -0.07,-104.48 -0.27,-105.45 110.17 80
3 05/20/2019 20:24:08 -0.07,-104.48 0.38,-102.49 226.99 80
4 05/21/2019 08:45:22 0.05,-104.40 0.76,-107.64 368.71 80
5 05/23/2019 08:33:10 0.06,-104.41 0.10,-104.69 31.10 80
6 05/25/2019 08:23:37 0.06,-104.42 -0.50,-101.72 306.70 80
7 05/25/2019 20:45:02 -0.04,-104.52 -0.57,-106.92 273.66 80
8 05/27/2019 20:30:10 -0.05,-104.53 0.10,-103.97 64.33 80
9 05/29/2019 20:17:57 -0.05,-104.54 0.71,-101.00 402.25 80
10 05/30/2019 08:39:12 0.03,-104.44 0.37,-106.16 194.89 80




NCC Satellite Simultaneous Nadir Overpasses (SNOs) Prediction Service
